Time,TemperatureF,DewpointF,PressureIn,WindDirection,WindDirectionDegrees,WindSpeedMPH,WindSpeedGustMPH,Humidity,HourlyPrecipIn,Conditions,Clouds,dailyrainin,SoftwareType,DateUTC
2013-11-05 00:13:00,42.8,33.7,30.23,WNW,292,2.2,-999.0,70,-99.99,,,0.00,Acu-Link.com,2013-11-05 05:13:00,
2013-11-05 00:28:00,42.8,34.1,30.24,West,270,2.2,-999.0,71,-99.99,,,0.00,Acu-Link.com,2013-11-05 05:28:00,
2013-11-05 00:43:00,42.8,33.7,30.23,WSW,247,2.2,-999.0,70,-99.99,,,0.00,Acu-Link.com,2013-11-05 05:43:00,
2013-11-05 00:58:00,42.4,32.6,30.23,WNW,292,2.7,-999.0,68,-99.99,,,0.00,Acu-Link.com,2013-11-05 05:58:00,
2013-11-05 01:13:00,42.4,33.4,30.24,NW,315,2.7,-999.0,70,-99.99,,,0.00,Acu-Link.com,2013-11-05 06:13:00,
2013-11-05 01:29:00,42.8,33.0,30.24,West,270,1.6,-999.0,68,-99.99,,,0.00,Acu-Link.com,2013-11-05 06:29:00,
2013-11-05 01:44:00,42.8,32.6,30.24,West,270,1.6,-999.0,67,-99.99,,,0.00,Acu-Link.com,2013-11-05 06:44:00,
2013-11-05 01:59:00,42.8,32.2,30.24,West,270,0.0,-999.0,66,-99.99,,,0.00,Acu-Link.com,2013-11-05 06:59:00,
2013-11-05 02:14:00,42.8,32.6,30.24,WSW,247,2.7,-999.0,67,-99.99,,,0.00,Acu-Link.com,2013-11-05 07:14:00,
2013-11-05 02:29:00,42.4,33.0,30.24,West,270,2.7,-999.0,69,-99.99,,,0.00,Acu-Link.com,2013-11-05 07:29:00,
2013-11-05 02:44:00,42.3,33.2,30.24,South,180,1.6,-999.0,70,-99.99,,,0.00,Acu-Link.com,2013-11-05 07:44:00,
2013-11-05 02:59:00,42.1,32.7,30.24,WNW,292,1.6,-999.0,69,-99.99,,,0.00,Acu-Link.com,2013-11-05 07:59:00,
2013-11-05 03:15:00,42.1,33.0,30.24,WSW,247,1.6,-999.0,70,-99.99,,,0.00,Acu-Link.com,2013-11-05 08:15:00,
2013-11-05 03:30:00,41.4,33.0,30.24,SW,225,0.0,-999.0,72,-99.99,,,0.00,Acu-Link.com,2013-11-05 08:30:00,
2013-11-05 03:45:00,40.8,33.5,30.24,West,270,0.0,-999.0,75,-99.99,,,0.00,Acu-Link.com,2013-11-05 08:45:00,
2013-11-05 04:00:00,40.8,32.8,30.23,West,270,1.6,-999.0,73,-99.99,,,0.00,Acu-Link.com,2013-11-05 09:00:00,
2013-11-05 04:15:00,40.8,32.8,30.23,WSW,247,2.2,-999.0,73,-99.99,,,0.00,Acu-Link.com,2013-11-05 09:15:00,
2013-11-05 04:30:00,40.3,33.3,30.22,West,270,2.7,-999.0,76,-99.99,,,0.00,Acu-Link.com,2013-11-05 09:30:00,
2013-11-05 04:45:00,39.7,33.1,30.23,SW,225,0.0,-999.0,77,-99.99,,,0.00,Acu-Link.com,2013-11-05 09:45:00,
2013-11-05 05:01:00,39.2,33.6,30.24,West,270,0.0,-999.0,80,-99.99,,,0.00,Acu-Link.com,2013-11-05 10:01:00,
2013-11-05 05:16:00,39.0,33.1,30.24,West,270,2.2,-999.0,79,-99.99,,,0.00,Acu-Link.com,2013-11-05 10:16:00,
2013-11-05 05:31:00,39.4,33.7,30.24,SE,135,0.0,-999.0,80,-99.99,,,0.00,Acu-Link.com,2013-11-05 10:31:00,
2013-11-05 05:46:00,39.4,32.5,30.24,West,270,0.0,-999.0,76,-99.99,,,0.00,Acu-Link.com,2013-11-05 10:46:00,
2013-11-05 06:01:00,39.4,33.1,30.24,South,180,0.0,-999.0,78,-99.99,,,0.00,Acu-Link.com,2013-11-05 11:01:00,
2013-11-05 06:16:00,39.4,33.7,30.24,SSE,157,0.0,-999.0,80,-99.99,,,0.00,Acu-Link.com,2013-11-05 11:16:00,
2013-11-05 06:32:00,39.0,33.7,30.23,SE,135,0.0,-999.0,81,-99.99,,,0.00,Acu-Link.com,2013-11-05 11:32:00,
2013-11-05 06:47:00,39.0,33.4,30.23,West,270,0.0,-999.0,80,-99.99,,,0.00,Acu-Link.com,2013-11-05 11:47:00,
2013-11-05 07:02:00,38.7,33.6,30.23,SW,225,0.0,-999.0,82,-99.99,,,0.00,Acu-Link.com,2013-11-05 12:02:00,
2013-11-05 07:17:00,38.1,32.8,30.23,WNW,292,0.0,-999.0,81,-99.99,,,0.00,Acu-Link.com,2013-11-05 12:17:00,
2013-11-05 07:32:00,38.3,33.0,30.23,West,270,0.0,-999.0,81,-99.99,,,0.00,Acu-Link.com,2013-11-05 12:32:00,
2013-11-05 07:48:00,39.0,33.7,30.23,ENE,67,0.0,-999.0,81,-99.99,,,0.00,Acu-Link.com,2013-11-05 12:48:00,
2013-11-05 08:03:00,40.5,34.2,30.24,South,180,0.0,-999.0,78,-99.99,,,0.00,Acu-Link.com,2013-11-05 13:03:00,
2013-11-05 08:18:00,44.6,35.8,30.24,ESE,112,0.0,-999.0,71,-99.99,,,0.00,Acu-Link.com,2013-11-05 13:18:00,
2013-11-05 08:33:00,44.8,34.1,30.25,NE,45,0.0,-999.0,66,-99.99,,,0.00,Acu-Link.com,2013-11-05 13:33:00,
2013-11-05 08:48:00,47.5,35.1,30.25,East,90,0.0,-999.0,62,-99.99,,,0.00,Acu-Link.com,2013-11-05 13:48:00,
2013-11-05 09:04:00,47.1,36.4,30.25,NE,45,0.0,-999.0,66,-99.99,,,0.00,Acu-Link.com,2013-11-05 14:04:00,
2013-11-05 09:19:00,51.6,32.6,30.25,ESE,112,0.0,-999.0,48,-99.99,,,0.00,Acu-Link.com,2013-11-05 14:19:00,
2013-11-05 09:34:00,51.8,31.1,30.25,West,270,1.1,-999.0,45,-99.99,,,0.00,Acu-Link.com,2013-11-05 14:34:00,
2013-11-05 09:49:00,53.8,30.6,30.25,NNW,337,2.2,-999.0,41,-99.99,,,0.00,Acu-Link.com,2013-11-05 14:49:00,
2013-11-05 10:04:00,53.6,31.7,30.26,NE,45,0.0,-999.0,43,-99.99,,,0.00,Acu-Link.com,2013-11-05 15:04:00,
2013-11-05 10:20:00,53.2,31.3,30.25,NNE,22,0.0,-999.0,43,-99.99,,,0.00,Acu-Link.com,2013-11-05 15:20:00,
2013-11-05 10:35:00,55.4,30.2,30.24,SSW,202,1.1,-999.0,38,-99.99,,,0.00,Acu-Link.com,2013-11-05 15:35:00,
2013-11-05 10:50:00,56.8,30.2,30.24,SSW,202,1.1,-999.0,36,-99.99,,,0.00,Acu-Link.com,2013-11-05 15:50:00,
2013-11-05 11:05:00,56.8,28.8,30.24,West,270,3.8,-999.0,34,-99.99,,,0.00,Acu-Link.com,2013-11-05 16:05:00,
2013-11-05 11:20:00,59.2,27.0,30.24,ENE,67,3.8,-999.0,29,-99.99,,,0.00,Acu-Link.com,2013-11-05 16:20:00,
2013-11-05 11:36:00,61.3,28.8,30.24,NNE,22,3.1,-999.0,29,-99.99,,,0.00,Acu-Link.com,2013-11-05 16:36:00,
2013-11-05 11:51:00,61.7,27.4,30.23,NNW,337,2.7,-999.0,27,-99.99,,,0.00,Acu-Link.com,2013-11-05 16:51:00,
2013-11-05 12:06:00,61.9,28.4,30.22,WSW,247,1.6,-999.0,28,-99.99,,,0.00,Acu-Link.com,2013-11-05 17:06:00,
2013-11-05 12:21:00,63.0,29.4,30.22,ENE,67,3.8,-999.0,28,-99.99,,,0.00,Acu-Link.com,2013-11-05 17:21:00,
2013-11-05 12:37:00,62.6,29.0,30.21,East,90,2.2,-999.0,28,-99.99,,,0.00,Acu-Link.com,2013-11-05 17:37:00,
2013-11-05 12:52:00,63.0,31.0,30.20,ESE,112,2.2,-999.0,30,-99.99,,,0.00,Acu-Link.com,2013-11-05 17:52:00,
2013-11-05 13:07:00,63.0,31.9,30.20,ENE,67,2.2,-999.0,31,-99.99,,,0.00,Acu-Link.com,2013-11-05 18:07:00,
2013-11-05 13:22:00,63.0,31.9,30.20,WSW,247,0.0,-999.0,31,-99.99,,,0.00,Acu-Link.com,2013-11-05 18:22:00,
2013-11-05 13:37:00,62.8,32.5,30.19,West,270,1.6,-999.0,32,-99.99,,,0.00,Acu-Link.com,2013-11-05 18:37:00,
2013-11-05 13:53:00,63.3,33.0,30.18,NE,45,1.6,-999.0,32,-99.99,,,0.00,Acu-Link.com,2013-11-05 18:53:00,
2013-11-05 14:08:00,63.1,32.8,30.17,SW,225,2.2,-999.0,32,-99.99,,,0.00,Acu-Link.com,2013-11-05 19:08:00,
2013-11-05 14:23:00,63.1,33.6,30.17,NE,45,1.6,-999.0,33,-99.99,,,0.00,Acu-Link.com,2013-11-05 19:23:00,
2013-11-05 14:38:00,64.2,34.5,30.17,WSW,247,0.0,-999.0,33,-99.99,,,0.00,Acu-Link.com,2013-11-05 19:38:00,
2013-11-05 14:53:00,62.6,35.3,30.17,West,270,2.7,-999.0,36,-99.99,,,0.00,Acu-Link.com,2013-11-05 19:53:00,
2013-11-05 15:09:00,61.3,35.5,30.17,West,270,1.6,-999.0,38,-99.99,,,0.00,Acu-Link.com,2013-11-05 20:09:00,
2013-11-05 15:24:00,61.5,36.3,30.16,North,0,2.2,-999.0,39,-99.99,,,0.00,Acu-Link.com,2013-11-05 20:24:00,
2013-11-05 15:39:00,62.1,36.8,30.17,West,270,1.6,-999.0,39,-99.99,,,0.00,Acu-Link.com,2013-11-05 20:39:00,
2013-11-05 15:54:00,60.3,37.7,30.16,West,270,1.6,-999.0,43,-99.99,,,0.00,Acu-Link.com,2013-11-05 20:54:00,
2013-11-05 16:09:00,59.0,39.3,30.15,West,270,2.2,-999.0,48,-99.99,,,0.00,Acu-Link.com,2013-11-05 21:09:00,
2013-11-05 16:25:00,57.6,39.6,30.15,West,270,2.2,-999.0,51,-99.99,,,0.00,Acu-Link.com,2013-11-05 21:25:00,
2013-11-05 16:40:00,56.7,38.2,30.15,West,270,2.2,-999.0,50,-99.99,,,0.00,Acu-Link.com,2013-11-05 21:40:00,
2013-11-05 16:55:00,55.8,37.9,30.15,West,270,0.0,-999.0,51,-99.99,,,0.00,Acu-Link.com,2013-11-05 21:55:00,
2013-11-05 17:10:00,54.9,38.5,30.16,West,270,0.0,-999.0,54,-99.99,,,0.00,Acu-Link.com,2013-11-05 22:10:00,
2013-11-05 17:26:00,53.8,38.0,30.16,NW,315,1.6,-999.0,55,-99.99,,,0.00,Acu-Link.com,2013-11-05 22:26:00,
2013-11-05 17:41:00,53.2,38.0,30.17,SW,225,0.0,-999.0,56,-99.99,,,0.00,Acu-Link.com,2013-11-05 22:41:00,
2013-11-05 17:56:00,53.1,37.3,30.16,WSW,247,0.0,-999.0,55,-99.99,,,0.00,Acu-Link.com,2013-11-05 22:56:00,
2013-11-05 18:11:00,51.8,34.7,30.16,West,270,0.0,-999.0,52,-99.99,,,0.00,Acu-Link.com,2013-11-05 23:11:00,
2013-11-05 18:26:00,50.9,34.9,30.16,West,270,0.0,-999.0,54,-99.99,,,0.00,Acu-Link.com,2013-11-05 23:26:00,
2013-11-05 18:42:00,50.0,35.4,30.17,WSW,247,0.0,-999.0,57,-99.99,,,0.00,Acu-Link.com,2013-11-05 23:42:00,
2013-11-05 18:57:00,49.8,36.1,30.17,SSW,202,2.2,-999.0,59,-99.99,,,0.00,Acu-Link.com,2013-11-05 23:57:00,
2013-11-05 19:12:00,49.8,34.3,30.17,West,270,0.0,-999.0,55,-99.99,,,0.00,Acu-Link.com,2013-11-06 00:12:00,
2013-11-05 19:27:00,49.6,36.7,30.17,NNE,22,0.0,-999.0,61,-99.99,,,0.00,Acu-Link.com,2013-11-06 00:27:00,
2013-11-05 19:42:00,49.3,36.0,30.17,WNW,292,0.0,-999.0,60,-99.99,,,0.00,Acu-Link.com,2013-11-06 00:42:00,
2013-11-05 19:58:00,49.1,34.5,30.17,West,270,0.0,-999.0,57,-99.99,,,0.00,Acu-Link.com,2013-11-06 00:58:00,
2013-11-05 20:13:00,48.7,33.3,30.18,WSW,247,0.0,-999.0,55,-99.99,,,0.00,Acu-Link.com,2013-11-06 01:13:00,
2013-11-05 20:28:00,48.7,33.8,30.18,West,270,0.0,-999.0,56,-99.99,,,0.00,Acu-Link.com,2013-11-06 01:28:00,
2013-11-05 20:43:00,48.2,33.7,30.18,SW,225,2.7,-999.0,57,-99.99,,,0.00,Acu-Link.com,2013-11-06 01:43:00,
2013-11-05 20:58:00,48.0,34.4,30.18,SSW,202,0.0,-999.0,59,-99.99,,,0.00,Acu-Link.com,2013-11-06 01:58:00,
2013-11-05 21:14:00,47.3,34.5,30.19,SSW,202,0.0,-999.0,61,-99.99,,,0.00,Acu-Link.com,2013-11-06 02:14:00,
2013-11-05 21:29:00,46.4,36.0,30.19,WSW,247,0.0,-999.0,67,-99.99,,,0.00,Acu-Link.com,2013-11-06 02:29:00,
2013-11-05 21:44:00,47.5,35.9,30.20,SW,225,1.6,-999.0,64,-99.99,,,0.00,Acu-Link.com,2013-11-06 02:44:00,
2013-11-05 21:59:00,47.7,35.3,30.20,West,270,2.7,-999.0,62,-99.99,,,0.00,Acu-Link.com,2013-11-06 02:59:00,
2013-11-05 22:15:00,47.5,36.3,30.19,NNW,337,1.1,-999.0,65,-99.99,,,0.00,Acu-Link.com,2013-11-06 03:15:00,
2013-11-05 22:30:00,47.7,33.6,30.19,WNW,292,1.6,-999.0,58,-99.99,,,0.00,Acu-Link.com,2013-11-06 03:30:00,
2013-11-05 22:45:00,47.1,34.8,30.18,WSW,247,0.0,-999.0,62,-99.99,,,0.00,Acu-Link.com,2013-11-06 03:45:00,
2013-11-05 23:00:00,46.2,33.5,30.19,West,270,3.1,-999.0,61,-99.99,,,0.00,Acu-Link.com,2013-11-06 04:00:00,
2013-11-05 23:15:00,46.4,34.5,30.18,SSW,202,1.6,-999.0,63,-99.99,,,0.00,Acu-Link.com,2013-11-06 04:15:00,
2013-11-05 23:31:00,46.0,35.3,30.18,WSW,247,1.1,-999.0,66,-99.99,,,0.00,Acu-Link.com,2013-11-06 04:31:00,
2013-11-05 23:46:00,45.5,35.9,30.18,WSW,247,0.0,-999.0,69,-99.99,,,0.00,Acu-Link.com,2013-11-06 04:46:00,